www.pogodaiklimat.ru

Погода и климат >> Архив погоды >> Боливия >> San Ramon


ПОГОДА в San Ramon

  • Прогноз погоды в San Ramon
  • Монитор погоды в San Ramon
  • Климат города

АРХИВ ПОГОДЫ в San Ramon

Время (UTC), дата Ветер
(напр.,м/с)
 
Видим.   Явления Облачность Т
(С)
Тd
(С)
f
(%)
Тe
(С)
Тes
(С)
Комфортность P
(гПа)
Po
(гПа)
Тmin
(С)
Tmax
(С)
R
(мм)
R24
(мм)
S
(см)
12 13.11 штиль 0 15 км 6/1 450 м
[Sc Ac trans]
+26.8 +22.4 77 +35 +39 очень
душно
1008.5 992.6 +21.5
15 13.11 В 3 15 км 8/3 500 м
[Cu med, cong Ac trans Ci]
+32.5 +23.0 57 +43 +50 опасность
перегрева
1010.0 994.1
18 13.11 ЮВ 2 15 км 8/4 500 м
[Cu med, cong Ci]
+33.0 +23.0 56 +43 +53 опасность
перегрева
1007.6 991.9
21 13.11 ЮВ 3 15 км 9/1 500 м
[Cu med, cong Ci]
+33.0 +23.6 58 +44 +46 опасность
перегрева
1004.6 988.9 +35.1
12 14.11 С 2 15 км 8/1 240 м
[St Ci]
+26.8 +24.8 89 +38 +42 очень
душно
1007.9 992.0 +21.5
15 14.11 С 4 15 км 9/4 500 м
[Cu med, cong Ci]
+30.4 +24.9 72 +43 +50 опасность
перегрева
1008.7 993.0
18 14.11 штиль 0 15 км 8/4 500 м
[Cu med, cong Ci]
+32.6 +24.6 63 +46 +58 опасность
перегрева
1006.7 991.2
21 14.11 штиль 0 15 км 6/1 500 м
[Cu med, cong Ci]
+32.5 +24.5 63 +45 +49 опасность
перегрева
1003.9 988.2 +33.0
12 15.11 СЗ 3 15 км 8/1 500 м
[Cu hum Ac trans Ci]
+26.0 +24.0 89 +36 +38 очень
душно
1008.0 992.1 +23.5
15 15.11 СЗ 6 15 км 8/6 500 м
[Cb cap Ac trans]
+29.8 +24.0 71 +41 +43 опасность
перегрева
1009.0 993.2
18 15.11 СЗ 6 15 км 8/4 500 м
[Cu med, cong Ci]
+33.6 +23.7 56 +45 +48 опасность
перегрева
1006.2 990.5
21 15.11 С 4 15 км 9/3 500 м
[Cu med, cong Ci]
+29.5 +24.7 75 +42 +43 опасность
перегрева
1004.1 988.5 +34.1
12 16.11 СЗ 4 15 км 9/1 450 м
[Sc Ci]
+26.5 +23.8 85 +36 +39 очень
душно
1008.7 992.7 +22.9
15 16.11 СЗ 6 15 км 8/4 500 м
[Cu med, cong Ci]
+32.0 +23.2 60 +43 +46 опасность
перегрева
1009.1 993.4
18 16.11 СЗ 6 15 км 6/6 500 м
[Cb cap]
+34.5 +21.8 48 +43 +46 опасность
перегрева
1006.7 991.0
21 16.11 СЗ 3 15 км 3/3 500 м
[Cu med, cong]
+33.6 +21.8 50 +42 +44 опасность
перегрева
1004.0 988.3 +35.3
12 17.11 СЗ 2 15 км 9/1 500 м
[Cu med, cong Ac trans]
+26.3 +24.2 88 +37 +39 очень
душно
1007.5 991.6 +23.3
15 17.11 СЗ 5 15 км 9/4 500 м
[Cu med, cong Ac trans]
+30.2 +23.6 68 +41 +44 опасность
перегрева
1008.2 992.4
18 17.11 З 6 7000 м гроза без осадков туман 8/8 500 м
[Cb cap]
+32.9 +23.0 56 +43 +44 опасность
перегрева
1005.2 989.5
21 17.11 З 7 7000 м гроза, ливневой дождь 10/6 500 м
[Cb cap Cs]
+28.5 +24.7 80 +41 +41 опасность
перегрева
1003.8 988.2 +33.5
12 18.11 СЗ 4 15 км 8/1 450 м
[Sc Ci]
+26.0 +23.0 84 +35 +37 очень
душно
1006.3 990.4 +21.7 1
15 18.11 СЗ 5 15 км 8/4 500 м
[Cu med, cong Ci]
+30.5 +21.8 60 +39 +44 очень
душно
1006.6 990.9
18 18.11 СЗ 2 15 км 8/8 500 м
[Cb cap Ci]
+33.0 +22.8 55 +43 +46 опасность
перегрева
1005.0 989.3
21 18.11 СЗ 7 7000 м гроза без осадков туман 9/5 500 м
[Cb cap Ci]
+28.0 +24.0 79 +39 +39 очень
душно
1003.7 987.8 +34.7
12 19.11 СЗ 3 15 км 8/0 2000 м
[Ac trans]
+27.5 +23.9 81 +38 +40 очень
душно
1005.8 990.0 +23.7
15 19.11 СЗ 3 15 км 9/4 500 м
[Cb cap Ac trans]
+30.2 +23.2 66 +40 +45 очень
душно
1007.6 991.8
18 19.11 ЮВ 4 6000 м гроза, ливневой дождь 10/6 300 м
[Cb cap As op]
+22.0 +22.0 100 +29 +30 очень
душно
1007.8 991.8 21
21 19.11 ЮВ 3 7000 м осадки на расстоянии {дождь} 10/8 300 м
[Cb cap As op]
+21.8 +21.3 97 +28 +28 душно 1007.2 991.1 +32.1

 

Местоположение метеостанции San Ramon (Боливия): широта -13.30 долгота -64.70 высота над уровнем моря 140 м.

В архиве по умолчанию представлена погода в San Ramon за последнюю неделю. Архивные данные за месяц целиком и за предыдущие месяцы, начиная с января 2011 года, Вы можете получить, выбрав интересующий диапазон дат из раскрывающегося списка и нажав кнопку "Ввод!".

Внимание! Время в таблицах - всемирное. Для получения местного времени необходимо прибавить поправку, которая в San Ramon равна -4 ч.

Смотрите также архив погоды в соседних городах и на ближайших метеорологических станциях:

Погода в San Joaquin (Боливия) (29 км)
Погода в Magdalena (Боливия) (64 км)
Погода в Baures (Боливия) (93 км)
Погода в Santa Ana (Боливия) (94 км)
Погода в Trinidad (Боливия) (169 км)
Погода в San Ignacio De Moxo (Боливия) (204 км)
Погода в Santa Rosa (Боливия) (257 км)
Погода в San Borja (Боливия) (291 км)
Погода в Riberalta (Боливия) (298 км)
Погода в Reyes (Боливия) (311 км)

Пояснения к столбцам:

Ветер - указаны скорость ветра в м/с - средняя за 10 мин, порывы в срок и между сроками (в фигурных скобках) и направление, откуда дует ветер: С - северный, СВ - северо-восточный, В - восточный, ЮВ - юго-восточный, Ю - южный, ЮЗ - юго-западный, З - западный, СЗ - северо-западный.
Видимость - горизонтальная дальность видимости в метрах или километрах. При видимости от 1 до 10 км при отсутствии осадков обычно наблюдается дымка, при ухудшении видимости до 1 км и менее - туман. В сухую погоду видимость может ухудшаться дымом, пылью или мглою.
Явления - указаны атмосферные явления, наблюдавшиеся в срок или в последний час перед сроком; фигурными скобками обозначены явления, наблюдавшиеся между сроками (за 1-3 часа до срока); квадратными скобками обозначены град или гололедные отложения с указанием их диаметра в мм.
Облачность - указаны через наклонную черту общая и нижняя облачность в баллах и высота нижней границы облаков в метрах; квадратными скобками обозначены формы облаков: Ci - перистые, Cs - перисто-слоистые, Cc - перисто-кучевые, Ac - высококучевые, As - высокослоистые, Sc - слоисто-кучевые, Ns - слоисто-дождевые, Cu - кучевые, Cb - кучево-дождевые. Подробнее классификацию облаков см. в Атласе облаков (PDF).
T - Температура воздуха - температура, измеренная на высоте 2 м над землей.
Td - Температура точки росы - температура, при понижении до которой содержащийся в воздухе водяной пар достигнет насыщения.
f - Относительная влажность воздуха - влажноcть воздуха, измеренная на высоте 2 м над землей.
Te - Эффективная температура - температура, которую ощущает одетый по сезону человек в тени. Характеристика душности погоды. При расчете учитывается влияние влажности воздуха и скорости ветра на теплоощущения человека.
Tes - Эффективная температура на солнце - температура, которую ощущает человек, с поправкой на солнечный нагрев. Характеристика знойности погоды. Зависит от высоты солнца над горизонтом, облачности и скорости ветра. Ночью, в пасмурную погоду, а также при ветре 12 м/с и более поправка равна нулю.
P - Атмосферное давление - приведенное к уровню моря атмосферное давление.
Po - Атмосферное давление - измеренное на уровне метеостанции атмосферное давление.
Tmin - Минимальная температура - минимум температуры воздуха на высоте 2 м над землей.
Tmax - Максимальная температура - максимум температуры воздуха на высоте 2 м над землей.
R - Количество осадков - Количество выпавших осадков за период времени, мм. При наведении курсора мыши на число - период времени, за который выпало указанное количество осадков.
R24 - Количество осадков - Количество выпавших осадков за 24 часа, мм.
S - Снежный покров - Высота снежного покрова, см. При наведении курсора мыши на число - состояние снежного покрова и степень покрытия местности в баллах.